Year,Month,Day,Hour,Minute,Value (Times are PST for temperature in C)
2015,06,29,00,00,24.20
2015,06,29,00,01,24.20
2015,06,29,00,02,24.20
2015,06,29,00,03,24.10
2015,06,29,00,04,24.10
2015,06,29,00,05,24.10
2015,06,29,00,06,24.10
2015,06,29,00,07,24.10
2015,06,29,00,08,24.00
2015,06,29,00,09,24.00
2015,06,29,00,10,24.00
2015,06,29,00,11,24.00
2015,06,29,00,12,23.90
2015,06,29,00,13,23.90
2015,06,29,00,14,23.90
2015,06,29,00,15,23.90
2015,06,29,00,16,23.90
2015,06,29,00,17,23.80
2015,06,29,00,18,23.80
2015,06,29,00,19,23.80
2015,06,29,00,20,23.80
2015,06,29,00,21,23.70
2015,06,29,00,22,23.70
2015,06,29,00,23,23.70
2015,06,29,00,24,23.70
2015,06,29,00,25,23.60
2015,06,29,00,26,23.60
2015,06,29,00,27,23.60
2015,06,29,00,28,23.60
2015,06,29,00,29,23.60
2015,06,29,00,30,23.50
2015,06,29,00,31,23.50
2015,06,29,00,32,23.50
2015,06,29,00,33,23.50
2015,06,29,00,34,23.40
2015,06,29,00,35,23.40
2015,06,29,00,36,23.40
2015,06,29,00,37,23.40
2015,06,29,00,38,23.40
2015,06,29,00,39,23.40
2015,06,29,00,40,23.40
2015,06,29,00,41,23.40
2015,06,29,00,42,23.40
2015,06,29,00,43,23.30
2015,06,29,00,44,23.30
2015,06,29,00,45,23.30
2015,06,29,00,46,23.30
2015,06,29,00,47,23.30
2015,06,29,00,48,23.20
2015,06,29,00,49,23.20
2015,06,29,00,50,23.20
2015,06,29,00,51,23.20
2015,06,29,00,52,23.10
2015,06,29,00,53,23.10
2015,06,29,00,54,23.10
2015,06,29,00,55,23.10
2015,06,29,00,56,23.10
2015,06,29,00,57,23.10
2015,06,29,00,58,23.10
2015,06,29,00,59,23.10
2015,06,29,01,00,23.10
2015,06,29,01,01,23.10
2015,06,29,01,02,23.10
2015,06,29,01,03,23.00
2015,06,29,01,04,23.00
2015,06,29,01,05,23.00
2015,06,29,01,06,23.00
2015,06,29,01,07,23.00
2015,06,29,01,08,23.00
2015,06,29,01,09,23.00
2015,06,29,01,10,23.10
2015,06,29,01,11,23.10
2015,06,29,01,12,23.10
2015,06,29,01,13,23.00
2015,06,29,01,14,23.10
2015,06,29,01,15,23.00
2015,06,29,01,16,23.00
2015,06,29,01,17,23.10
2015,06,29,01,18,23.10
2015,06,29,01,19,23.10
2015,06,29,01,20,23.20
2015,06,29,01,21,23.20
2015,06,29,01,22,23.30
2015,06,29,01,23,23.30
2015,06,29,01,24,23.30
2015,06,29,01,25,23.30
2015,06,29,01,26,23.30
2015,06,29,01,27,23.30
2015,06,29,01,28,23.30
2015,06,29,01,29,23.30
2015,06,29,01,30,23.30
2015,06,29,01,31,23.30
2015,06,29,01,32,23.30
2015,06,29,01,33,23.30
2015,06,29,01,34,23.30
2015,06,29,01,35,23.30
2015,06,29,01,36,23.30
2015,06,29,01,37,23.30
2015,06,29,01,38,23.30
2015,06,29,01,39,23.30
2015,06,29,01,40,23.30
2015,06,29,01,41,23.20
2015,06,29,01,42,23.20
2015,06,29,01,43,23.20
2015,06,29,01,44,23.20
2015,06,29,01,45,23.20
2015,06,29,01,46,23.10
2015,06,29,01,47,23.10
2015,06,29,01,48,23.10
2015,06,29,01,49,23.10
2015,06,29,01,50,23.00
2015,06,29,01,51,23.00
2015,06,29,01,52,23.00
2015,06,29,01,53,22.90
2015,06,29,01,54,22.90
2015,06,29,01,55,22.90
2015,06,29,01,56,22.80
2015,06,29,01,57,22.80
2015,06,29,01,58,22.80
2015,06,29,01,59,22.80
2015,06,29,02,00,22.80
2015,06,29,02,01,22.70
2015,06,29,02,02,22.70
2015,06,29,02,03,22.70
2015,06,29,02,04,22.70
2015,06,29,02,05,22.70
2015,06,29,02,06,22.70
2015,06,29,02,07,22.60
2015,06,29,02,08,22.60
2015,06,29,02,09,22.60
2015,06,29,02,10,22.60
2015,06,29,02,11,22.60
2015,06,29,02,12,22.60
2015,06,29,02,13,22.60
2015,06,29,02,14,22.60
2015,06,29,02,15,22.50
2015,06,29,02,16,22.50
2015,06,29,02,17,22.50
2015,06,29,02,18,22.50
2015,06,29,02,19,22.40
2015,06,29,02,20,22.40
2015,06,29,02,21,22.40
2015,06,29,02,22,22.40
2015,06,29,02,23,22.30
2015,06,29,02,24,22.30
2015,06,29,02,25,22.30
2015,06,29,02,26,22.30
2015,06,29,02,27,22.30
2015,06,29,02,28,22.30
2015,06,29,02,29,22.30
2015,06,29,02,30,22.30
2015,06,29,02,31,22.30
2015,06,29,02,32,22.30
2015,06,29,02,33,22.30
2015,06,29,02,34,22.30
2015,06,29,02,35,22.30
2015,06,29,02,36,22.40
2015,06,29,02,37,22.40
2015,06,29,02,38,22.40
2015,06,29,02,39,22.40
2015,06,29,02,40,22.40
2015,06,29,02,41,22.40
2015,06,29,02,42,22.40
2015,06,29,02,43,22.40
2015,06,29,02,44,22.40
2015,06,29,02,45,22.40
2015,06,29,02,46,22.30
2015,06,29,02,47,22.30
2015,06,29,02,48,22.30
2015,06,29,02,49,22.30
2015,06,29,02,50,22.20
2015,06,29,02,51,22.20
2015,06,29,02,52,22.20
2015,06,29,02,53,22.20
2015,06,29,02,54,22.20
2015,06,29,02,55,22.20
2015,06,29,02,56,22.20
2015,06,29,02,57,22.10
2015,06,29,02,58,22.20
2015,06,29,02,59,22.20
2015,06,29,03,00,22.20
2015,06,29,03,01,22.20
2015,06,29,03,02,22.20
2015,06,29,03,03,22.20
2015,06,29,03,04,22.20
2015,06,29,03,05,22.20
2015,06,29,03,06,22.20
2015,06,29,03,07,22.20
2015,06,29,03,08,22.20
2015,06,29,03,09,22.30
2015,06,29,03,10,22.30
2015,06,29,03,11,22.30
2015,06,29,03,12,22.30
2015,06,29,03,13,22.40
2015,06,29,03,14,22.40
2015,06,29,03,15,22.40
2015,06,29,03,16,22.40
2015,06,29,03,17,22.40
2015,06,29,03,18,22.50
2015,06,29,03,19,22.50
2015,06,29,03,20,22.60
2015,06,29,03,21,22.60
2015,06,29,03,22,22.60
2015,06,29,03,23,22.60
2015,06,29,03,24,22.60
2015,06,29,03,25,22.60
2015,06,29,03,26,22.60
2015,06,29,03,27,22.60
2015,06,29,03,28,22.60
2015,06,29,03,29,22.60
2015,06,29,03,30,22.60
2015,06,29,03,31,22.60
2015,06,29,03,32,22.60
2015,06,29,03,33,22.60
2015,06,29,03,34,22.60
2015,06,29,03,35,22.50
2015,06,29,03,36,22.50
2015,06,29,03,37,22.50
2015,06,29,03,38,22.50
2015,06,29,03,39,22.50
2015,06,29,03,40,22.50
2015,06,29,03,41,22.50
2015,06,29,03,42,22.60
2015,06,29,03,43,22.60
2015,06,29,03,44,22.60
2015,06,29,03,45,22.70
2015,06,29,03,46,22.70
2015,06,29,03,47,22.70
2015,06,29,03,48,22.70
2015,06,29,03,49,22.70
2015,06,29,03,50,22.70
2015,06,29,03,51,22.60
2015,06,29,03,52,22.60
2015,06,29,03,53,22.60
2015,06,29,03,54,22.60
2015,06,29,03,55,22.70
2015,06,29,03,56,22.70
2015,06,29,03,57,22.70
2015,06,29,03,58,22.70
2015,06,29,03,59,22.70
2015,06,29,04,00,22.70
2015,06,29,04,01,22.70
2015,06,29,04,02,22.70
2015,06,29,04,03,22.70
2015,06,29,04,04,22.70
2015,06,29,04,05,22.70
2015,06,29,04,06,22.70
2015,06,29,04,07,22.80
2015,06,29,04,08,22.80
2015,06,29,04,09,22.80
2015,06,29,04,10,22.80
2015,06,29,04,11,22.80
2015,06,29,04,12,22.80
2015,06,29,04,13,22.80
2015,06,29,04,14,22.80
2015,06,29,04,15,22.80
2015,06,29,04,16,22.70
2015,06,29,04,17,22.70
2015,06,29,04,18,22.70
2015,06,29,04,19,22.70
2015,06,29,04,20,22.70
2015,06,29,04,21,22.70
2015,06,29,04,22,22.70
2015,06,29,04,23,22.70
2015,06,29,04,24,22.70
2015,06,29,04,25,22.70
2015,06,29,04,26,22.70
2015,06,29,04,27,22.70
2015,06,29,04,28,22.80
2015,06,29,04,29,22.80
2015,06,29,04,30,22.80
2015,06,29,04,31,22.80
2015,06,29,04,32,22.80
2015,06,29,04,33,22.80
2015,06,29,04,34,22.80
2015,06,29,04,35,22.80
2015,06,29,04,36,22.80
2015,06,29,04,37,22.80
2015,06,29,04,38,22.80
2015,06,29,04,39,22.80
2015,06,29,04,40,22.80
2015,06,29,04,41,22.80
2015,06,29,04,42,22.80
2015,06,29,04,43,22.80
2015,06,29,04,44,22.80
2015,06,29,04,45,22.80
2015,06,29,04,46,22.90
2015,06,29,04,47,22.90
2015,06,29,04,48,22.90
2015,06,29,04,49,22.90
2015,06,29,04,50,22.90
2015,06,29,04,51,22.90
2015,06,29,04,52,22.90
2015,06,29,04,53,22.90
2015,06,29,04,54,22.90
2015,06,29,04,55,22.90
2015,06,29,04,56,22.90
2015,06,29,04,57,22.90
2015,06,29,04,58,22.90
2015,06,29,04,59,22.90
2015,06,29,05,00,22.90
2015,06,29,05,01,22.90
2015,06,29,05,02,22.90
2015,06,29,05,03,22.90
2015,06,29,05,04,22.90
2015,06,29,05,05,22.90
2015,06,29,05,06,22.90
2015,06,29,05,07,22.90
2015,06,29,05,08,22.80
2015,06,29,05,09,22.80
2015,06,29,05,10,22.80
2015,06,29,05,11,22.80
2015,06,29,05,12,22.80
2015,06,29,05,13,22.80
2015,06,29,05,14,22.80
2015,06,29,05,15,22.80
2015,06,29,05,16,22.80
2015,06,29,05,17,22.80
2015,06,29,05,18,22.80
2015,06,29,05,19,22.80
2015,06,29,05,20,22.70
2015,06,29,05,21,22.70
2015,06,29,05,22,22.70
2015,06,29,05,23,22.70
2015,06,29,05,24,22.70
2015,06,29,05,25,22.70
2015,06,29,05,26,22.60
2015,06,29,05,27,22.60
2015,06,29,05,28,22.60
2015,06,29,05,29,22.60
2015,06,29,05,30,22.60
2015,06,29,05,31,22.50
2015,06,29,05,32,22.50
2015,06,29,05,33,22.40
2015,06,29,05,34,22.40
2015,06,29,05,35,22.40
2015,06,29,05,36,22.40
2015,06,29,05,37,22.30
2015,06,29,05,38,22.30
2015,06,29,05,39,22.30
2015,06,29,05,40,22.20
2015,06,29,05,41,22.20
2015,06,29,05,42,22.20
2015,06,29,05,43,22.20
2015,06,29,05,44,22.10
2015,06,29,05,45,22.10
2015,06,29,05,46,22.10
2015,06,29,05,47,22.10
2015,06,29,05,48,22.00
2015,06,29,05,49,22.00
2015,06,29,05,50,22.00
2015,06,29,05,51,22.00
2015,06,29,05,52,21.90
2015,06,29,05,53,21.90
2015,06,29,05,54,21.90
2015,06,29,05,55,21.90
2015,06,29,05,56,21.90
2015,06,29,05,57,21.80
2015,06,29,05,58,21.80
2015,06,29,05,59,21.80
2015,06,29,06,00,21.80
2015,06,29,06,01,21.80
2015,06,29,06,02,21.80
2015,06,29,06,03,21.80
2015,06,29,06,04,21.80
2015,06,29,06,05,21.80
2015,06,29,06,06,21.80
2015,06,29,06,07,21.80
2015,06,29,06,08,21.80
2015,06,29,06,09,21.80
2015,06,29,06,10,21.80
2015,06,29,06,11,21.70
2015,06,29,06,12,21.70
2015,06,29,06,13,21.70
2015,06,29,06,14,21.70
2015,06,29,06,15,21.70
2015,06,29,06,16,21.70
2015,06,29,06,17,21.70
2015,06,29,06,18,21.70
2015,06,29,06,19,21.70
2015,06,29,06,20,21.70
2015,06,29,06,21,21.70
2015,06,29,06,22,21.70
2015,06,29,06,23,21.70
2015,06,29,06,24,21.70
2015,06,29,06,25,21.70
2015,06,29,06,26,21.70
2015,06,29,06,27,21.70
2015,06,29,06,28,21.70
2015,06,29,06,29,21.70
2015,06,29,06,30,21.70
2015,06,29,06,31,21.70
2015,06,29,06,32,21.80
2015,06,29,06,33,21.80
2015,06,29,06,34,21.80
2015,06,29,06,35,21.80
2015,06,29,06,36,21.80
2015,06,29,06,37,21.80
2015,06,29,06,38,21.80
2015,06,29,06,39,21.80
2015,06,29,06,40,21.90
2015,06,29,06,41,21.90
2015,06,29,06,42,21.90
2015,06,29,06,43,21.90
2015,06,29,06,44,22.00
2015,06,29,06,45,22.00
2015,06,29,06,46,22.00
2015,06,29,06,47,22.00
2015,06,29,06,48,22.10
2015,06,29,06,49,22.10
2015,06,29,06,50,22.10
2015,06,29,06,51,22.10
2015,06,29,06,52,22.10
2015,06,29,06,53,22.10
2015,06,29,06,54,22.10
2015,06,29,06,55,22.10
2015,06,29,06,56,22.20
2015,06,29,06,57,22.20
2015,06,29,06,58,22.20
2015,06,29,06,59,22.20
2015,06,29,07,00,22.20
2015,06,29,07,01,22.30
2015,06,29,07,02,22.30
2015,06,29,07,03,22.30
2015,06,29,07,04,22.30
2015,06,29,07,05,22.30
2015,06,29,07,06,22.40
2015,06,29,07,07,22.40
2015,06,29,07,08,22.40
2015,06,29,07,09,22.40
2015,06,29,07,10,22.50
2015,06,29,07,11,22.50
2015,06,29,07,12,22.60
2015,06,29,07,13,22.60
2015,06,29,07,14,22.60
2015,06,29,07,15,22.70
2015,06,29,07,16,22.70
2015,06,29,07,17,22.70
2015,06,29,07,18,22.70
2015,06,29,07,19,22.80
2015,06,29,07,20,22.80
2015,06,29,07,21,22.80
2015,06,29,07,22,22.80
2015,06,29,07,23,22.80
2015,06,29,07,24,22.80
2015,06,29,07,25,22.80
2015,06,29,07,26,22.80
2015,06,29,07,27,22.80
2015,06,29,07,28,22.80
2015,06,29,07,29,22.70
2015,06,29,07,30,22.70
2015,06,29,07,31,22.70
2015,06,29,07,32,22.60
2015,06,29,07,33,22.70
2015,06,29,07,34,22.70
2015,06,29,07,35,22.70
2015,06,29,07,36,22.70
2015,06,29,07,37,22.70
2015,06,29,07,38,22.70
2015,06,29,07,39,22.70
2015,06,29,07,40,22.70
2015,06,29,07,41,22.80
2015,06,29,07,42,22.80
2015,06,29,07,43,22.80
2015,06,29,07,44,22.90
2015,06,29,07,45,22.90
2015,06,29,07,46,22.90
2015,06,29,07,47,23.00
2015,06,29,07,48,23.00
2015,06,29,07,49,23.10
2015,06,29,07,50,23.10
2015,06,29,07,51,23.10
2015,06,29,07,52,23.10
2015,06,29,07,53,23.10
2015,06,29,07,54,23.10
2015,06,29,07,55,23.10
2015,06,29,07,56,23.10
2015,06,29,07,57,23.10
2015,06,29,07,58,23.10
2015,06,29,07,59,23.10
2015,06,29,08,00,23.10
2015,06,29,08,01,23.10
2015,06,29,08,02,23.10
2015,06,29,08,03,23.10
2015,06,29,08,04,23.10
2015,06,29,08,05,23.20
2015,06,29,08,06,23.10
2015,06,29,08,07,23.10
2015,06,29,08,08,23.10
2015,06,29,08,09,23.10
2015,06,29,08,10,23.20
2015,06,29,08,11,23.20
2015,06,29,08,12,23.30
2015,06,29,08,13,23.40
2015,06,29,08,14,23.40
2015,06,29,08,15,23.60
2015,06,29,08,16,23.70
2015,06,29,08,17,23.80
2015,06,29,08,18,23.90
2015,06,29,08,19,24.00
2015,06,29,08,20,24.00
2015,06,29,08,21,23.90
2015,06,29,08,22,24.00
2015,06,29,08,23,24.00
2015,06,29,08,24,24.00
2015,06,29,08,25,24.10
2015,06,29,08,26,24.10
2015,06,29,08,27,24.20
2015,06,29,08,28,24.10
2015,06,29,08,29,24.10
2015,06,29,08,30,24.10
2015,06,29,08,31,24.00
2015,06,29,08,32,23.90
2015,06,29,08,33,23.80
2015,06,29,08,34,23.80
2015,06,29,08,35,23.70
2015,06,29,08,36,23.60
2015,06,29,08,37,23.50
2015,06,29,08,38,23.40
2015,06,29,08,39,23.30
2015,06,29,08,40,23.30
2015,06,29,08,41,23.30
2015,06,29,08,42,23.20
2015,06,29,08,43,23.20
2015,06,29,08,44,23.10
2015,06,29,08,45,23.00
2015,06,29,08,46,22.90
2015,06,29,08,47,22.90
2015,06,29,08,48,22.90
2015,06,29,08,49,22.80
2015,06,29,08,50,22.80
2015,06,29,08,51,22.80
2015,06,29,08,52,22.80
2015,06,29,08,53,22.70
2015,06,29,08,54,22.70
2015,06,29,08,55,22.70
2015,06,29,08,56,22.80
2015,06,29,08,57,22.80
2015,06,29,08,58,22.90
2015,06,29,08,59,22.90
2015,06,29,09,00,22.90
2015,06,29,09,01,22.90
2015,06,29,09,02,22.90
2015,06,29,09,03,22.80
2015,06,29,09,04,22.80
2015,06,29,09,05,22.80
2015,06,29,09,06,22.70
2015,06,29,09,07,22.60
2015,06,29,09,08,22.60
2015,06,29,09,09,22.60
2015,06,29,09,10,22.60
2015,06,29,09,11,22.60
2015,06,29,09,12,22.60
2015,06,29,09,13,22.60
2015,06,29,09,14,22.60
2015,06,29,09,15,22.60
2015,06,29,09,16,22.70
2015,06,29,09,17,22.80
2015,06,29,09,18,22.80
2015,06,29,09,19,22.90
2015,06,29,09,20,23.00
2015,06,29,09,21,23.10
2015,06,29,09,22,23.10
2015,06,29,09,23,23.10
2015,06,29,09,24,23.20
2015,06,29,09,25,23.20
2015,06,29,09,26,23.30
2015,06,29,09,27,23.30
2015,06,29,09,28,23.40
2015,06,29,09,29,23.40
2015,06,29,09,30,23.50
2015,06,29,09,31,23.50
2015,06,29,09,32,23.60
2015,06,29,09,33,23.60
2015,06,29,09,34,23.60
2015,06,29,09,35,23.60
2015,06,29,09,36,23.70
2015,06,29,09,37,23.70
2015,06,29,09,38,23.70
2015,06,29,09,39,23.70
2015,06,29,09,40,23.80
2015,06,29,09,41,23.80
2015,06,29,09,42,23.90
2015,06,29,09,43,23.90
2015,06,29,09,44,24.00
2015,06,29,09,45,24.00
2015,06,29,09,46,24.10
2015,06,29,09,47,24.10
2015,06,29,09,48,24.10
2015,06,29,09,49,24.10
2015,06,29,09,50,24.10
2015,06,29,09,51,24.10
2015,06,29,09,52,24.20
2015,06,29,09,53,24.20
2015,06,29,09,54,24.30
2015,06,29,09,55,24.30
2015,06,29,09,56,24.30
2015,06,29,09,57,24.30
2015,06,29,09,58,24.40
2015,06,29,09,59,24.40
2015,06,29,10,00,24.40
2015,06,29,10,01,24.50
2015,06,29,10,02,24.60
2015,06,29,10,03,24.60
2015,06,29,10,04,24.70
2015,06,29,10,05,24.80
2015,06,29,10,06,24.90
2015,06,29,10,07,25.00
2015,06,29,10,08,25.10
2015,06,29,10,09,25.10
2015,06,29,10,10,25.20
2015,06,29,10,11,25.20
2015,06,29,10,12,25.10
2015,06,29,10,13,25.00
2015,06,29,10,14,25.00
2015,06,29,10,15,24.90
2015,06,29,10,16,24.90
2015,06,29,10,17,25.00
2015,06,29,10,18,25.10
2015,06,29,10,19,25.10
2015,06,29,10,20,25.20
2015,06,29,10,21,25.30
2015,06,29,10,22,25.40
2015,06,29,10,23,25.60
2015,06,29,10,24,25.70
2015,06,29,10,25,25.70
2015,06,29,10,26,25.80
2015,06,29,10,27,25.80
2015,06,29,10,28,25.80
2015,06,29,10,29,25.90
2015,06,29,10,30,25.90
2015,06,29,10,31,25.90
2015,06,29,10,32,25.80
2015,06,29,10,33,25.80
2015,06,29,10,34,25.80
2015,06,29,10,35,25.80
2015,06,29,10,36,25.70
2015,06,29,10,37,25.70
2015,06,29,10,38,25.70
2015,06,29,10,39,25.60
2015,06,29,10,40,25.60
2015,06,29,10,41,25.50
2015,06,29,10,42,25.50
2015,06,29,10,43,25.50
2015,06,29,10,44,25.50
2015,06,29,10,45,25.60
2015,06,29,10,46,25.60
2015,06,29,10,47,25.70
2015,06,29,10,48,25.70
2015,06,29,10,49,25.70
2015,06,29,10,50,25.70
2015,06,29,10,51,25.70
2015,06,29,10,52,25.60
2015,06,29,10,53,25.70
2015,06,29,10,54,25.70
2015,06,29,10,55,25.80
2015,06,29,10,56,25.90
2015,06,29,10,57,25.90
2015,06,29,10,58,25.90
2015,06,29,10,59,26.00
2015,06,29,11,00,26.00
2015,06,29,11,01,26.00
2015,06,29,11,02,25.90
2015,06,29,11,03,25.90
2015,06,29,11,04,25.90
2015,06,29,11,05,25.90
2015,06,29,11,06,25.90
2015,06,29,11,07,25.90
2015,06,29,11,08,25.90
2015,06,29,11,09,25.80
2015,06,29,11,10,25.70
2015,06,29,11,11,25.60
2015,06,29,11,12,25.40
2015,06,29,11,13,25.20
2015,06,29,11,14,25.10
2015,06,29,11,15,25.00
2015,06,29,11,16,24.90
2015,06,29,11,17,24.90
2015,06,29,11,18,24.80
2015,06,29,11,19,24.80
2015,06,29,11,20,24.80
2015,06,29,11,21,24.80
2015,06,29,11,22,24.80
2015,06,29,11,23,24.80
2015,06,29,11,24,24.90
2015,06,29,11,25,24.90
2015,06,29,11,26,24.90
2015,06,29,11,27,24.90
2015,06,29,11,28,24.90
2015,06,29,11,29,24.90
2015,06,29,11,30,24.90
2015,06,29,11,31,24.90
2015,06,29,11,32,24.90
2015,06,29,11,33,25.00
2015,06,29,11,34,25.00
2015,06,29,11,35,25.10
2015,06,29,11,36,25.10
2015,06,29,11,37,25.20
2015,06,29,11,38,25.20
2015,06,29,11,39,25.20
2015,06,29,11,40,25.20
2015,06,29,11,41,25.30
2015,06,29,11,42,25.30
2015,06,29,11,43,25.30
2015,06,29,11,44,25.40
2015,06,29,11,45,25.40
2015,06,29,11,46,25.40
2015,06,29,11,47,25.40
2015,06,29,11,48,25.40
2015,06,29,11,49,25.40
2015,06,29,11,50,25.40
2015,06,29,11,51,25.40
2015,06,29,11,52,25.40
2015,06,29,11,53,25.40
2015,06,29,11,54,25.50
2015,06,29,11,55,25.50
2015,06,29,11,56,25.60
2015,06,29,11,57,25.60
2015,06,29,11,58,25.70
2015,06,29,11,59,25.70
2015,06,29,12,00,25.60
2015,06,29,12,01,25.60
2015,06,29,12,02,25.60
2015,06,29,12,03,25.60
2015,06,29,12,04,25.60
2015,06,29,12,05,25.70
2015,06,29,12,06,25.80
2015,06,29,12,07,25.90
2015,06,29,12,08,25.90
2015,06,29,12,09,25.90
2015,06,29,12,10,25.90
2015,06,29,12,11,25.90
2015,06,29,12,12,25.90
2015,06,29,12,13,25.90
2015,06,29,12,14,25.90
2015,06,29,12,15,25.90
2015,06,29,12,16,25.90
2015,06,29,12,17,25.90
2015,06,29,12,18,25.90
2015,06,29,12,19,25.90
2015,06,29,12,20,25.90
2015,06,29,12,21,25.80
2015,06,29,12,22,25.80
2015,06,29,12,23,25.80
2015,06,29,12,24,25.90
2015,06,29,12,25,25.90
2015,06,29,12,26,25.90
2015,06,29,12,27,25.90
2015,06,29,12,28,26.00
2015,06,29,12,29,26.00
2015,06,29,12,30,26.00
2015,06,29,12,31,26.00
2015,06,29,12,32,25.90
2015,06,29,12,33,25.90
2015,06,29,12,34,25.90
2015,06,29,12,35,25.90
2015,06,29,12,36,25.90
2015,06,29,12,37,25.90
2015,06,29,12,38,25.90
2015,06,29,12,39,25.90
2015,06,29,12,40,25.90
2015,06,29,12,41,25.90
2015,06,29,12,42,26.00
2015,06,29,12,43,26.00
2015,06,29,12,44,26.10
2015,06,29,12,45,26.20
2015,06,29,12,46,26.20
2015,06,29,12,47,26.30
2015,06,29,12,48,26.50
2015,06,29,12,49,26.50
2015,06,29,12,50,26.60
2015,06,29,12,51,26.60
2015,06,29,12,52,26.70
2015,06,29,12,53,26.70
2015,06,29,12,54,26.70
2015,06,29,12,55,26.70
2015,06,29,12,56,26.70
2015,06,29,12,57,26.70
2015,06,29,12,58,26.70
2015,06,29,12,59,26.70
2015,06,29,13,00,26.60
2015,06,29,13,01,26.60
2015,06,29,13,02,26.50
2015,06,29,13,03,26.50
2015,06,29,13,04,26.50
2015,06,29,13,05,26.50
2015,06,29,13,06,26.50
2015,06,29,13,07,26.60
2015,06,29,13,08,26.60
2015,06,29,13,09,26.70
2015,06,29,13,10,26.70
2015,06,29,13,11,26.80
2015,06,29,13,12,26.80
2015,06,29,13,13,26.90
2015,06,29,13,14,26.90
2015,06,29,13,15,26.90
2015,06,29,13,16,27.00
2015,06,29,13,17,27.10
2015,06,29,13,18,27.10
2015,06,29,13,19,27.10
2015,06,29,13,20,27.10
2015,06,29,13,21,27.10
2015,06,29,13,22,27.10
2015,06,29,13,23,27.10
2015,06,29,13,24,27.10
2015,06,29,13,25,27.20
2015,06,29,13,26,27.20
2015,06,29,13,27,27.30
2015,06,29,13,28,27.30
2015,06,29,13,29,27.30
2015,06,29,13,30,27.40
2015,06,29,13,31,27.40
2015,06,29,13,32,27.40
2015,06,29,13,33,27.40
2015,06,29,13,34,27.40
2015,06,29,13,35,27.40
2015,06,29,13,36,27.40
2015,06,29,13,37,27.50
2015,06,29,13,38,27.60
2015,06,29,13,39,27.60
2015,06,29,13,40,27.70
2015,06,29,13,41,27.80
2015,06,29,13,42,27.90
2015,06,29,13,43,28.00
2015,06,29,13,44,28.00
2015,06,29,13,45,28.10
2015,06,29,13,46,28.10
2015,06,29,13,47,28.30
2015,06,29,13,48,28.30
2015,06,29,13,49,28.40
2015,06,29,13,50,28.50
2015,06,29,13,51,28.50
2015,06,29,13,52,28.60
2015,06,29,13,53,28.60
2015,06,29,13,54,28.70
2015,06,29,13,55,28.70
2015,06,29,13,56,28.60
2015,06,29,13,57,28.60
2015,06,29,13,58,28.50
2015,06,29,13,59,28.50
2015,06,29,14,00,28.40
2015,06,29,14,01,28.30
2015,06,29,14,02,28.30
2015,06,29,14,03,28.30
2015,06,29,14,04,28.20
2015,06,29,14,05,28.20
2015,06,29,14,06,28.10
2015,06,29,14,07,28.10
2015,06,29,14,08,28.10
2015,06,29,14,09,28.20
2015,06,29,14,10,28.20
2015,06,29,14,11,28.20
2015,06,29,14,12,28.30
2015,06,29,14,13,28.30
2015,06,29,14,14,28.40
2015,06,29,14,15,28.40
2015,06,29,14,16,28.40
2015,06,29,14,17,28.50
2015,06,29,14,18,28.50
2015,06,29,14,19,28.50
2015,06,29,14,20,28.60
2015,06,29,14,21,28.70
2015,06,29,14,22,28.80
2015,06,29,14,23,28.90
2015,06,29,14,24,29.00
2015,06,29,14,25,29.10
2015,06,29,14,26,29.10
2015,06,29,14,27,29.10
2015,06,29,14,28,29.00
2015,06,29,14,29,29.00
2015,06,29,14,30,29.00
2015,06,29,14,31,28.90
2015,06,29,14,32,28.90
2015,06,29,14,33,28.90
2015,06,29,14,34,28.90
2015,06,29,14,35,28.90
2015,06,29,14,36,28.90
2015,06,29,14,37,28.80
2015,06,29,14,38,28.80
2015,06,29,14,39,28.80
2015,06,29,14,40,28.80
2015,06,29,14,41,28.80
2015,06,29,14,42,28.80
2015,06,29,14,43,28.80
2015,06,29,14,44,28.80
2015,06,29,14,45,28.80
2015,06,29,14,46,28.80
2015,06,29,14,47,28.80
2015,06,29,14,48,28.80
2015,06,29,14,49,28.90
2015,06,29,14,50,28.90
2015,06,29,14,51,29.00
2015,06,29,14,52,29.00
2015,06,29,14,53,29.00
2015,06,29,14,54,28.90
2015,06,29,14,55,28.80
2015,06,29,14,56,28.80
2015,06,29,14,57,28.80
2015,06,29,14,58,28.80
2015,06,29,14,59,28.80
2015,06,29,15,00,28.80
2015,06,29,15,01,28.80
2015,06,29,15,02,28.80
2015,06,29,15,03,28.80
2015,06,29,15,04,28.90
2015,06,29,15,05,28.90
2015,06,29,15,06,29.00
2015,06,29,15,07,29.00
2015,06,29,15,08,29.00
2015,06,29,15,09,29.00
2015,06,29,15,10,29.00
2015,06,29,15,11,29.00
2015,06,29,15,12,28.90
2015,06,29,15,13,29.00
2015,06,29,15,14,29.00
2015,06,29,15,15,29.10
2015,06,29,15,16,29.10
2015,06,29,15,17,29.20
2015,06,29,15,18,29.30
2015,06,29,15,19,29.30
2015,06,29,15,20,29.30
2015,06,29,15,21,29.40
2015,06,29,15,22,29.50
2015,06,29,15,23,29.50
2015,06,29,15,24,29.70
2015,06,29,15,25,29.80
2015,06,29,15,26,29.80
2015,06,29,15,27,29.90
2015,06,29,15,28,29.90
2015,06,29,15,29,29.80
2015,06,29,15,30,29.90
2015,06,29,15,31,29.90
2015,06,29,15,32,29.90
2015,06,29,15,33,30.00
2015,06,29,15,34,30.00
2015,06,29,15,35,30.10
2015,06,29,15,36,30.10
2015,06,29,15,37,30.20
2015,06,29,15,38,30.30
2015,06,29,15,39,30.30
2015,06,29,15,40,30.40
2015,06,29,15,41,30.50
2015,06,29,15,42,30.50
2015,06,29,15,43,30.60
2015,06,29,15,44,30.60
2015,06,29,15,45,30.60
2015,06,29,15,46,30.60
2015,06,29,15,47,30.60
2015,06,29,15,48,30.70
2015,06,29,15,49,30.70
2015,06,29,15,50,30.60
2015,06,29,15,51,30.60
2015,06,29,15,52,30.60
2015,06,29,15,53,30.50
2015,06,29,15,54,30.50
2015,06,29,15,55,30.50
2015,06,29,15,56,30.40
2015,06,29,15,57,30.30
2015,06,29,15,58,30.10
2015,06,29,15,59,29.90
2015,06,29,16,00,29.70
2015,06,29,16,01,29.50
2015,06,29,16,02,29.40
2015,06,29,16,03,29.20
2015,06,29,16,04,29.10
2015,06,29,16,05,29.00
2015,06,29,16,06,28.90
2015,06,29,16,07,28.80
2015,06,29,16,08,28.70
2015,06,29,16,09,28.70
2015,06,29,16,10,28.70
2015,06,29,16,11,28.70
2015,06,29,16,12,28.70
2015,06,29,16,13,28.80
2015,06,29,16,14,28.90
2015,06,29,16,15,29.00
2015,06,29,16,16,29.10
2015,06,29,16,17,29.10
2015,06,29,16,18,29.10
2015,06,29,16,19,29.20
2015,06,29,16,20,29.20
2015,06,29,16,21,29.20
2015,06,29,16,22,29.20
2015,06,29,16,23,29.20
2015,06,29,16,24,29.20
2015,06,29,16,25,29.10
2015,06,29,16,26,29.00
2015,06,29,16,27,28.80
2015,06,29,16,28,28.70
2015,06,29,16,29,28.60
2015,06,29,16,30,28.50
2015,06,29,16,31,28.40
2015,06,29,16,32,28.30
2015,06,29,16,33,28.20
2015,06,29,16,34,28.20
2015,06,29,16,35,28.10
2015,06,29,16,36,28.10
2015,06,29,16,37,28.10
2015,06,29,16,38,28.10
2015,06,29,16,39,28.10
2015,06,29,16,40,28.20
2015,06,29,16,41,28.20
2015,06,29,16,42,28.10
2015,06,29,16,43,28.00
2015,06,29,16,44,28.00
2015,06,29,16,45,27.90
2015,06,29,16,46,27.80
2015,06,29,16,47,27.80
2015,06,29,16,48,27.70
2015,06,29,16,49,27.70
2015,06,29,16,50,27.70
2015,06,29,16,51,27.60
2015,06,29,16,52,27.60
2015,06,29,16,53,27.50
2015,06,29,16,54,27.40
2015,06,29,16,55,27.40
2015,06,29,16,56,27.40
2015,06,29,16,57,27.30
2015,06,29,16,58,27.20
2015,06,29,16,59,27.20
2015,06,29,17,00,27.20
2015,06,29,17,01,27.20
2015,06,29,17,02,27.20
2015,06,29,17,03,27.20
2015,06,29,17,04,27.20
2015,06,29,17,05,27.20
2015,06,29,17,06,27.30
2015,06,29,17,07,27.30
2015,06,29,17,08,27.20
2015,06,29,17,09,27.20
2015,06,29,17,10,27.10
2015,06,29,17,11,27.10
2015,06,29,17,12,27.10
2015,06,29,17,13,27.10
2015,06,29,17,14,27.20
2015,06,29,17,15,27.30
2015,06,29,17,16,27.40
2015,06,29,17,17,27.50
2015,06,29,17,18,27.60
2015,06,29,17,19,27.70